Find Starlink 3766

NORAD ID: 52296 Int'l Des: 2022-041 Owner: SPXS Country: US Constellation: starlink operational
LEOCIRCULAR

現在のビュー

3D地球を読み込み中...

About Starlink 3766

Starlink 3766 (NORAD 52296) is a starlink constellation satellite (v1.5) launched Apr 21, 2022 by SPXS of US. It operates in LEO, CIRCULAR orbit with a mass of 297.00 kg.

Starlink 3766について

説明を読み込み中...

次回通過

Passes for default location (London). Set your location on the main map for personalized predictions.

高度履歴

Loading altitude history...

軌道要素

1 52296U 22041AM 26195.58335648 .00075775 00000-0 29980-2 0 9999
2 52296 53.1587 248.6161 0000525 150.4359 151.8278 15.24799837 5846
Epoch: Jul 14, 2026 • Age: 8 hours

現在のステータス

高度 491.7 km
遠地点 / 近地点 N/A
速度 7.62 km/s
衛星直下点 14.86°N, 7.34°W
打ち上げ日 Apr 21, 2022
運用期間 4.2 years
タイプ internet

技術仕様

分類 Payload
質量 297.00 kg
乾燥質量 275.00 kg
総質量 297.00 kg
長さ 0.20 m
直径 2.80 m
スパン 9.00 m
形状 Box + pan
製造者 SPXS
バスタイプ Starlink
フェーズステータス In Orbit
所有者/国 SPXS/US

Most Searched